Time,TemperatureF,DewpointF,PressureIn,WindDirection,WindDirectionDegrees,WindSpeedMPH,WindSpeedGustMPH,Humidity,HourlyPrecipIn,Conditions,Clouds,dailyrainin,SoftwareType,DateUTC
2013-09-19 00:05:00,48.9,45.8,30.19,NE,53,0.0,8.0,89,0.00,,,0.00,Wunderground v.1.15,2013-09-19 04:05:00,
2013-09-19 00:09:00,48.8,46.0,30.19,NE,53,0.0,8.0,90,0.00,,,0.00,Wunderground v.1.15,2013-09-19 04:09:00,
2013-09-19 00:14:00,48.6,45.8,30.19,NE,53,0.0,8.0,90,0.00,,,0.00,Wunderground v.1.15,2013-09-19 04:14:00,
2013-09-19 00:19:00,48.5,45.7,30.19,NE,53,0.0,8.0,90,0.00,,,0.00,Wunderground v.1.15,2013-09-19 04:19:00,
2013-09-19 00:25:00,48.4,45.6,30.19,NE,53,0.0,8.0,90,0.00,,,0.00,Wunderground v.1.15,2013-09-19 04:25:00,
2013-09-19 00:30:00,48.4,45.9,30.19,NE,53,0.0,8.0,91,0.00,,,0.00,Wunderground v.1.15,2013-09-19 04:30:00,
2013-09-19 00:35:00,48.3,45.8,30.19,NE,53,0.0,8.0,91,0.00,,,0.00,Wunderground v.1.15,2013-09-19 04:35:00,
2013-09-19 00:40:00,48.4,45.9,30.19,NE,53,0.0,8.0,91,0.00,,,0.00,Wunderground v.1.15,2013-09-19 04:40:00,
2013-09-19 00:45:00,48.4,45.9,30.19,NE,53,0.0,8.0,91,0.00,,,0.00,Wunderground v.1.15,2013-09-19 04:45:00,
2013-09-19 00:55:00,48.6,46.1,30.19,NE,53,0.0,8.0,91,0.00,,,0.00,Wunderground v.1.15,2013-09-19 04:55:00,
2013-09-19 01:00:00,48.7,46.2,30.19,NE,53,0.0,8.0,91,0.00,,,0.00,Wunderground v.1.15,2013-09-19 05:00:00,
2013-09-19 01:09:00,48.8,46.3,30.18,NE,53,0.0,8.0,91,0.00,,,0.00,Wunderground v.1.15,2013-09-19 05:09:00,
2013-09-19 01:15:00,48.8,46.0,30.18,NE,53,0.0,8.0,90,0.00,,,0.00,Wunderground v.1.15,2013-09-19 05:15:00,
2013-09-19 01:20:00,48.8,46.0,30.18,NE,53,0.0,8.0,90,0.00,,,0.00,Wunderground v.1.15,2013-09-19 05:20:00,
2013-09-19 01:25:00,48.7,45.9,30.18,NE,53,0.0,8.0,90,0.00,,,0.00,Wunderground v.1.15,2013-09-19 05:25:00,
2013-09-19 01:30:00,48.6,46.1,30.18,NE,53,0.0,8.0,91,0.00,,,0.00,Wunderground v.1.15,2013-09-19 05:30:00,
2013-09-19 01:35:00,48.6,46.1,30.18,NE,53,0.0,8.0,91,0.00,,,0.00,Wunderground v.1.15,2013-09-19 05:35:00,
2013-09-19 01:40:00,48.6,46.1,30.18,NE,53,0.0,8.0,91,0.00,,,0.00,Wunderground v.1.15,2013-09-19 05:40:00,
2013-09-19 01:45:00,48.5,46.0,30.18,NE,53,0.0,8.0,91,0.00,,,0.00,Wunderground v.1.15,2013-09-19 05:45:00,
2013-09-19 01:55:00,48.5,46.3,30.18,NE,53,0.0,8.0,92,0.00,,,0.00,Wunderground v.1.15,2013-09-19 05:55:00,
2013-09-19 01:59:00,48.4,46.2,30.18,NE,53,0.0,8.0,92,0.00,,,0.00,Wunderground v.1.15,2013-09-19 05:59:00,
2013-09-19 02:05:00,48.3,46.1,30.18,NE,53,0.0,8.0,92,0.00,,,0.00,Wunderground v.1.15,2013-09-19 06:05:00,
2013-09-19 02:10:00,48.2,46.0,30.18,NE,53,0.0,8.0,92,0.00,,,0.00,Wunderground v.1.15,2013-09-19 06:10:00,
2013-09-19 02:15:00,48.1,45.9,30.18,NE,53,0.0,8.0,92,0.00,,,0.00,Wunderground v.1.15,2013-09-19 06:15:00,
2013-09-19 02:25:00,47.9,46.0,30.17,NE,53,0.0,8.0,93,0.00,,,0.00,Wunderground v.1.15,2013-09-19 06:25:00,
2013-09-19 02:30:00,47.9,46.0,30.17,NE,53,0.0,8.0,93,0.00,,,0.00,Wunderground v.1.15,2013-09-19 06:30:00,
2013-09-19 02:35:00,47.8,46.2,30.17,NE,53,0.0,8.0,94,0.00,,,0.00,Wunderground v.1.15,2013-09-19 06:35:00,
2013-09-19 02:40:00,47.8,46.2,30.17,NE,53,0.0,8.0,94,0.00,,,0.00,Wunderground v.1.15,2013-09-19 06:40:00,
2013-09-19 02:45:00,47.7,45.8,30.17,NE,53,0.0,8.0,93,0.00,,,0.00,Wunderground v.1.15,2013-09-19 06:45:00,
2013-09-19 02:50:00,47.6,45.7,30.17,NE,53,0.0,8.0,93,0.00,,,0.00,Wunderground v.1.15,2013-09-19 06:50:00,
2013-09-19 02:55:00,47.5,45.6,30.17,NE,53,0.0,8.0,93,0.00,,,0.00,Wunderground v.1.15,2013-09-19 06:55:00,
2013-09-19 03:05:00,47.5,45.9,30.17,NE,53,0.0,8.0,94,0.00,,,0.00,Wunderground v.1.15,2013-09-19 07:05:00,
2013-09-19 03:10:00,47.6,46.0,30.17,NE,53,0.0,8.0,94,0.00,,,0.00,Wunderground v.1.15,2013-09-19 07:10:00,
2013-09-19 03:15:00,47.7,46.1,30.16,NE,53,0.0,8.0,94,0.00,,,0.00,Wunderground v.1.15,2013-09-19 07:15:00,
2013-09-19 03:20:00,47.7,46.1,30.16,NE,53,0.0,8.0,94,0.00,,,0.00,Wunderground v.1.15,2013-09-19 07:20:00,
2013-09-19 03:25:00,47.6,46.0,30.16,NE,53,0.0,8.0,94,0.00,,,0.00,Wunderground v.1.15,2013-09-19 07:25:00,
2013-09-19 03:30:00,47.5,45.6,30.16,NE,53,0.0,8.0,93,0.00,,,0.00,Wunderground v.1.15,2013-09-19 07:30:00,
2013-09-19 03:35:00,47.5,45.9,30.16,NE,53,0.0,8.0,94,0.00,,,0.00,Wunderground v.1.15,2013-09-19 07:35:00,
2013-09-19 03:44:00,47.5,45.9,30.16,NE,53,0.0,8.0,94,0.00,,,0.00,Wunderground v.1.15,2013-09-19 07:44:00,
2013-09-19 03:50:00,47.4,45.8,30.16,NE,53,0.0,8.0,94,0.00,,,0.00,Wunderground v.1.15,2013-09-19 07:50:00,
2013-09-19 03:55:00,47.4,45.8,30.16,NE,53,0.0,8.0,94,0.00,,,0.00,Wunderground v.1.15,2013-09-19 07:55:00,
2013-09-19 04:00:00,47.3,45.7,30.16,NE,53,0.0,8.0,94,0.00,,,0.00,Wunderground v.1.15,2013-09-19 08:00:00,
2013-09-19 04:05:00,47.3,45.7,30.16,NE,53,0.0,8.0,94,0.00,,,0.00,Wunderground v.1.15,2013-09-19 08:05:00,
2013-09-19 04:10:00,47.3,45.7,30.16,NE,53,0.0,8.0,94,0.00,,,0.00,Wunderground v.1.15,2013-09-19 08:10:00,
2013-09-19 04:15:00,47.2,45.8,30.16,NE,53,0.0,8.0,95,0.00,,,0.00,Wunderground v.1.15,2013-09-19 08:15:00,
2013-09-19 04:20:00,47.1,45.7,30.16,NE,53,0.0,8.0,95,0.00,,,0.00,Wunderground v.1.15,2013-09-19 08:20:00,
2013-09-19 04:30:00,47.0,45.6,30.16,NE,53,0.0,8.0,95,0.00,,,0.00,Wunderground v.1.15,2013-09-19 08:30:00,
2013-09-19 04:35:00,46.8,45.4,30.16,NE,53,0.0,8.0,95,0.00,,,0.00,Wunderground v.1.15,2013-09-19 08:35:00,
2013-09-19 04:40:00,46.7,45.3,30.16,NE,53,0.0,8.0,95,0.00,,,0.00,Wunderground v.1.15,2013-09-19 08:40:00,
2013-09-19 04:45:00,46.5,45.1,30.16,NE,53,0.0,8.0,95,0.00,,,0.00,Wunderground v.1.15,2013-09-19 08:45:00,
2013-09-19 04:50:00,46.4,45.0,30.16,NE,53,0.0,8.0,95,0.00,,,0.00,Wunderground v.1.15,2013-09-19 08:50:00,
2013-09-19 04:55:00,46.2,44.8,30.16,NE,53,0.0,8.0,95,0.00,,,0.00,Wunderground v.1.15,2013-09-19 08:55:00,
2013-09-19 05:00:00,45.9,44.5,30.16,NE,53,0.0,8.0,95,0.00,,,0.00,Wunderground v.1.15,2013-09-19 09:00:00,
2013-09-19 05:05:00,45.8,44.4,30.16,NE,53,0.0,8.0,95,0.00,,,0.00,Wunderground v.1.15,2013-09-19 09:05:00,
2013-09-19 05:10:00,45.6,44.5,30.16,NE,53,0.0,8.0,96,0.00,,,0.00,Wunderground v.1.15,2013-09-19 09:10:00,
2013-09-19 05:20:00,45.3,44.0,30.16,NE,53,0.0,8.0,95,0.00,,,0.00,Wunderground v.1.15,2013-09-19 09:20:00,
2013-09-19 05:25:00,45.1,44.0,30.15,NE,53,0.0,8.0,96,0.00,,,0.00,Wunderground v.1.15,2013-09-19 09:25:00,
2013-09-19 05:30:00,45.1,44.0,30.16,NE,53,0.0,8.0,96,0.00,,,0.00,Wunderground v.1.15,2013-09-19 09:30:00,
2013-09-19 05:35:00,45.1,44.3,30.16,NE,53,0.0,8.0,97,0.00,,,0.00,Wunderground v.1.15,2013-09-19 09:35:00,
2013-09-19 05:40:00,45.2,44.4,30.16,NE,53,0.0,8.0,97,0.00,,,0.00,Wunderground v.1.15,2013-09-19 09:40:00,
2013-09-19 05:45:00,45.2,44.4,30.16,NE,53,0.0,8.0,97,0.00,,,0.00,Wunderground v.1.15,2013-09-19 09:45:00,
2013-09-19 05:50:00,45.2,44.4,30.16,NE,53,0.0,8.0,97,0.00,,,0.00,Wunderground v.1.15,2013-09-19 09:50:00,
2013-09-19 06:00:00,45.3,44.8,30.16,NE,53,0.0,8.0,98,0.00,,,0.00,Wunderground v.1.15,2013-09-19 10:00:00,
2013-09-19 06:05:00,45.2,44.4,30.16,NE,53,0.0,8.0,97,0.00,,,0.00,Wunderground v.1.15,2013-09-19 10:05:00,
2013-09-19 06:10:00,45.1,44.3,30.16,NE,53,0.0,8.0,97,0.00,,,0.00,Wunderground v.1.15,2013-09-19 10:10:00,
2013-09-19 06:15:00,45.1,44.3,30.16,NE,53,0.0,8.0,97,0.00,,,0.00,Wunderground v.1.15,2013-09-19 10:15:00,
2013-09-19 06:20:00,45.0,44.2,30.16,NE,53,0.0,8.0,97,0.00,,,0.00,Wunderground v.1.15,2013-09-19 10:20:00,
2013-09-19 06:25:00,44.8,44.0,30.16,NE,53,0.0,8.0,97,0.00,,,0.00,Wunderground v.1.15,2013-09-19 10:25:00,
2013-09-19 06:30:00,44.7,43.9,30.16,NE,53,0.0,8.0,97,0.00,,,0.00,Wunderground v.1.15,2013-09-19 10:30:00,
2013-09-19 06:39:00,44.6,43.8,30.17,NE,53,0.0,8.0,97,0.00,,,0.00,Wunderground v.1.15,2013-09-19 10:39:00,
2013-09-19 06:45:00,44.5,43.7,30.17,NE,53,0.0,8.0,97,0.00,,,0.00,Wunderground v.1.15,2013-09-19 10:45:00,
2013-09-19 06:50:00,44.5,44.0,30.17,NE,53,0.0,8.0,98,0.00,,,0.00,Wunderground v.1.15,2013-09-19 10:50:00,
2013-09-19 06:55:00,44.6,44.1,30.17,NE,53,0.0,8.0,98,0.00,,,0.00,Wunderground v.1.15,2013-09-19 10:55:00,
2013-09-19 07:00:00,44.7,44.2,30.17,NE,53,0.0,8.0,98,0.00,,,0.00,Wunderground v.1.15,2013-09-19 11:00:00,
2013-09-19 07:05:00,44.9,44.6,30.17,NE,53,0.0,8.0,99,0.00,,,0.00,Wunderground v.1.15,2013-09-19 11:05:00,
2013-09-19 07:10:00,45.1,44.8,30.17,NE,53,0.0,8.0,99,0.00,,,0.00,Wunderground v.1.15,2013-09-19 11:10:00,
2013-09-19 07:15:00,45.3,45.0,30.17,NE,53,0.0,8.0,99,0.00,,,0.00,Wunderground v.1.15,2013-09-19 11:15:00,
2013-09-19 07:25:00,45.6,45.3,30.17,NE,53,0.0,8.0,99,0.00,,,0.00,Wunderground v.1.15,2013-09-19 11:25:00,
2013-09-19 07:30:00,45.9,45.6,30.17,NE,53,0.0,8.0,99,0.00,,,0.00,Wunderground v.1.15,2013-09-19 11:30:00,
2013-09-19 07:35:00,46.0,45.7,30.17,NE,53,0.0,8.0,99,0.00,,,0.00,Wunderground v.1.15,2013-09-19 11:35:00,
2013-09-19 07:40:00,46.3,46.0,30.17,NE,53,0.0,8.0,99,0.00,,,0.00,Wunderground v.1.15,2013-09-19 11:40:00,
2013-09-19 07:45:00,46.5,46.2,30.17,NE,53,0.0,8.0,99,0.00,,,0.00,Wunderground v.1.15,2013-09-19 11:45:00,
2013-09-19 07:50:00,46.9,46.6,30.17,NE,53,0.0,8.0,99,0.00,,,0.00,Wunderground v.1.15,2013-09-19 11:50:00,
2013-09-19 07:55:00,47.3,47.0,30.16,NE,53,0.0,8.0,99,0.00,,,0.00,Wunderground v.1.15,2013-09-19 11:55:00,
2013-09-19 08:00:00,47.8,47.8,30.17,NE,53,0.0,8.0,100,0.00,,,0.00,Wunderground v.1.15,2013-09-19 12:00:00,
2013-09-19 08:10:00,49.2,48.9,30.17,NE,53,0.0,8.0,99,0.00,,,0.00,Wunderground v.1.15,2013-09-19 12:10:00,
2013-09-19 08:15:00,50.0,49.7,30.17,NE,53,0.0,8.0,99,0.00,,,0.00,Wunderground v.1.15,2013-09-19 12:15:00,
2013-09-19 08:20:00,51.0,50.7,30.17,NE,53,0.0,8.0,99,0.00,,,0.00,Wunderground v.1.15,2013-09-19 12:20:00,
2013-09-19 08:25:00,51.8,50.4,30.17,NE,53,0.0,8.0,95,0.00,,,0.00,Wunderground v.1.15,2013-09-19 12:25:00,
2013-09-19 08:30:00,52.8,50.8,30.17,NE,53,0.0,8.0,93,0.00,,,0.00,Wunderground v.1.15,2013-09-19 12:30:00,
2013-09-19 08:35:00,54.1,51.2,30.17,NE,53,0.0,8.0,90,0.00,,,0.00,Wunderground v.1.15,2013-09-19 12:35:00,
2013-09-19 08:40:00,54.7,51.5,30.17,ESE,122,0.0,8.0,89,0.00,,,0.00,Wunderground v.1.15,2013-09-19 12:40:00,
2013-09-19 08:45:00,54.6,51.4,30.17,ESE,123,1.0,8.0,89,0.00,,,0.00,Wunderground v.1.15,2013-09-19 12:45:00,
2013-09-19 08:50:00,55.1,51.6,30.17,ESE,123,0.0,8.0,88,0.00,,,0.00,Wunderground v.1.15,2013-09-19 12:50:00,
2013-09-19 08:55:00,55.8,52.0,30.17,SE,132,0.0,8.0,87,0.00,,,0.00,Wunderground v.1.15,2013-09-19 12:55:00,
2013-09-19 09:05:00,56.5,51.7,30.16,SSE,148,1.0,8.0,84,0.00,,,0.00,Wunderground v.1.15,2013-09-19 13:05:00,
2013-09-19 09:10:00,56.9,53.1,30.16,SSW,202,1.0,8.0,87,0.00,,,0.00,Wunderground v.1.15,2013-09-19 13:10:00,
2013-09-19 09:15:00,57.0,52.5,30.16,SSW,194,1.0,8.0,85,0.00,,,0.00,Wunderground v.1.15,2013-09-19 13:15:00,
2013-09-19 09:20:00,57.2,52.1,30.16,SSW,213,1.0,8.0,83,0.00,,,0.00,Wunderground v.1.15,2013-09-19 13:20:00,
2013-09-19 09:25:00,56.9,51.5,30.16,SSW,213,1.0,8.0,82,0.00,,,0.00,Wunderground v.1.15,2013-09-19 13:25:00,
2013-09-19 09:30:00,57.5,53.0,30.16,South,190,1.0,8.0,85,0.00,,,0.00,Wunderground v.1.15,2013-09-19 13:30:00,
2013-09-19 09:35:00,58.1,52.6,30.16,SSW,199,1.0,8.0,82,0.00,,,0.00,Wunderground v.1.15,2013-09-19 13:35:00,
2013-09-19 09:45:00,59.0,53.5,30.16,SSW,199,1.0,8.0,82,0.00,,,0.00,Wunderground v.1.15,2013-09-19 13:45:00,
2013-09-19 09:50:00,59.5,54.3,30.16,SSW,199,1.0,8.0,83,0.00,,,0.00,Wunderground v.1.15,2013-09-19 13:50:00,
2013-09-19 09:55:00,60.1,54.2,30.16,SSW,199,1.0,8.0,81,0.00,,,0.00,Wunderground v.1.15,2013-09-19 13:55:00,
2013-09-19 10:00:00,60.2,54.0,30.16,SSW,211,1.0,8.0,80,0.00,,,0.00,Wunderground v.1.15,2013-09-19 14:00:00,
2013-09-19 10:05:00,61.0,55.1,30.16,South,184,1.0,8.0,81,0.00,,,0.00,Wunderground v.1.15,2013-09-19 14:05:00,
2013-09-19 10:10:00,61.6,55.4,30.16,SSW,198,1.0,8.0,80,0.00,,,0.00,Wunderground v.1.15,2013-09-19 14:10:00,
2013-09-19 10:15:00,61.6,55.0,30.16,SW,229,2.0,8.0,79,0.00,,,0.00,Wunderground v.1.15,2013-09-19 14:15:00,
2013-09-19 10:20:00,62.0,55.4,30.16,SSW,200,2.0,2.0,79,0.00,,,0.00,Wunderground v.1.15,2013-09-19 14:20:00,
2013-09-19 10:29:00,62.1,55.2,30.16,SSW,205,2.0,8.0,78,0.00,,,0.00,Wunderground v.1.15,2013-09-19 14:29:00,
2013-09-19 10:35:00,62.6,56.0,30.17,SW,215,2.0,8.0,79,0.00,,,0.00,Wunderground v.1.15,2013-09-19 14:35:00,
2013-09-19 10:40:00,62.9,55.6,30.16,WSW,238,2.0,2.0,77,0.00,,,0.00,Wunderground v.1.15,2013-09-19 14:40:00,
2013-09-19 10:45:00,63.0,55.7,30.16,SW,216,2.0,8.0,77,0.00,,,0.00,Wunderground v.1.15,2013-09-19 14:45:00,
2013-09-19 10:50:00,63.6,57.0,30.16,South,186,2.0,2.0,79,0.00,,,0.00,Wunderground v.1.15,2013-09-19 14:50:00,
2013-09-19 10:55:00,64.3,57.6,30.16,SSW,212,2.0,3.0,79,0.00,,,0.00,Wunderground v.1.15,2013-09-19 14:55:00,
2013-09-19 11:00:00,64.8,56.7,30.16,SW,232,2.0,8.0,75,0.00,,,0.00,Wunderground v.1.15,2013-09-19 15:00:00,
2013-09-19 11:05:00,64.9,57.9,30.16,SW,224,2.0,8.0,78,0.00,,,0.00,Wunderground v.1.15,2013-09-19 15:05:00,
2013-09-19 11:15:00,65.6,57.8,30.16,SSW,197,2.0,8.0,76,0.00,,,0.00,Wunderground v.1.15,2013-09-19 15:15:00,
2013-09-19 11:24:00,66.5,58.0,30.15,SW,223,2.0,4.0,74,0.00,,,0.00,Wunderground v.1.15,2013-09-19 15:24:00,
2013-09-19 11:30:00,66.7,57.8,30.15,South,184,2.0,8.0,73,0.00,,,0.00,Wunderground v.1.15,2013-09-19 15:30:00,
2013-09-19 11:35:00,66.9,57.6,30.15,SSW,200,2.0,8.0,72,0.00,,,0.00,Wunderground v.1.15,2013-09-19 15:35:00,
2013-09-19 11:40:00,67.6,57.5,30.14,SSW,212,2.0,8.0,70,0.00,,,0.00,Wunderground v.1.15,2013-09-19 15:40:00,
2013-09-19 11:50:00,68.8,52.5,30.14,SSE,150,1.0,1.0,56,0.00,,,0.00,Wunderground v.1.15,2013-09-19 15:50:00,
2013-09-19 11:55:00,70.0,54.5,30.14,SSE,148,0.0,8.0,58,0.00,,,0.00,Wunderground v.1.15,2013-09-19 15:55:00,
2013-09-19 12:00:00,70.8,54.8,30.14,SSE,147,0.0,8.0,57,0.00,,,0.00,Wunderground v.1.15,2013-09-19 16:00:00,
2013-09-19 12:05:00,71.4,54.9,30.14,NNE,13,0.0,8.0,56,0.00,,,0.00,Wunderground v.1.15,2013-09-19 16:05:00,
2013-09-19 12:15:00,72.1,54.5,30.14,ENE,59,1.0,8.0,54,0.00,,,0.00,Wunderground v.1.15,2013-09-19 16:15:00,
2013-09-19 12:19:00,72.4,53.2,30.14,North,355,1.0,1.0,51,0.00,,,0.00,Wunderground v.1.15,2013-09-19 16:19:00,
2013-09-19 12:25:00,72.5,53.9,30.14,North,10,1.0,8.0,52,0.00,,,0.00,Wunderground v.1.15,2013-09-19 16:25:00,
2013-09-19 12:30:00,72.6,53.4,30.14,NNE,17,0.0,8.0,51,0.00,,,0.00,Wunderground v.1.15,2013-09-19 16:30:00,
2013-09-19 12:35:00,73.0,54.9,30.14,NNE,21,0.0,8.0,53,0.00,,,0.00,Wunderground v.1.15,2013-09-19 16:35:00,
2013-09-19 12:40:00,73.2,54.0,30.14,NNE,21,0.0,8.0,51,0.00,,,0.00,Wunderground v.1.15,2013-09-19 16:40:00,
2013-09-19 12:45:00,73.0,54.3,30.14,West,279,0.0,8.0,52,0.00,,,0.00,Wunderground v.1.15,2013-09-19 16:45:00,
2013-09-19 12:55:00,72.0,52.9,30.14,North,5,1.0,8.0,51,0.00,,,0.00,Wunderground v.1.15,2013-09-19 16:55:00,
2013-09-19 13:05:00,71.9,52.8,30.13,North,10,0.0,8.0,51,0.00,,,0.00,Wunderground v.1.15,2013-09-19 17:05:00,
2013-09-19 13:10:00,72.0,51.8,30.13,North,360,0.0,8.0,49,0.00,,,0.00,Wunderground v.1.15,2013-09-19 17:10:00,
2013-09-19 13:15:00,72.1,53.5,30.13,North,360,0.0,8.0,52,0.00,,,0.00,Wunderground v.1.15,2013-09-19 17:15:00,
2013-09-19 13:20:00,72.2,52.5,30.13,NE,42,0.0,8.0,50,0.00,,,0.00,Wunderground v.1.15,2013-09-19 17:20:00,
2013-09-19 13:25:00,72.1,53.5,30.13,NE,56,1.0,8.0,52,0.00,,,0.00,Wunderground v.1.15,2013-09-19 17:25:00,
2013-09-19 13:30:00,72.4,52.2,30.13,NE,56,1.0,1.0,49,0.00,,,0.00,Wunderground v.1.15,2013-09-19 17:30:00,
2013-09-19 13:35:00,72.4,53.8,30.12,NNE,17,0.0,8.0,52,0.00,,,0.00,Wunderground v.1.15,2013-09-19 17:35:00,
2013-09-19 13:44:00,72.6,52.9,30.12,NW,316,0.0,8.0,50,0.00,,,0.00,Wunderground v.1.15,2013-09-19 17:44:00,
2013-09-19 13:50:00,73.0,51.6,30.12,NW,326,0.0,8.0,47,0.00,,,0.00,Wunderground v.1.15,2013-09-19 17:50:00,
2013-09-19 13:55:00,73.1,52.8,30.12,NW,321,0.0,8.0,49,0.00,,,0.00,Wunderground v.1.15,2013-09-19 17:55:00,
2013-09-19 14:00:00,73.1,53.9,30.12,NW,321,0.0,8.0,51,0.00,,,0.00,Wunderground v.1.15,2013-09-19 18:00:00,
2013-09-19 14:05:00,73.1,52.8,30.11,West,275,0.0,8.0,49,0.00,,,0.00,Wunderground v.1.15,2013-09-19 18:05:00,
2013-09-19 14:10:00,73.1,53.9,30.11,West,275,0.0,8.0,51,0.00,,,0.00,Wunderground v.1.15,2013-09-19 18:10:00,
2013-09-19 14:15:00,73.0,52.7,30.11,West,275,0.0,8.0,49,0.00,,,0.00,Wunderground v.1.15,2013-09-19 18:15:00,
2013-09-19 14:25:00,72.6,52.3,30.11,North,5,0.0,8.0,49,0.00,,,0.00,Wunderground v.1.15,2013-09-19 18:25:00,
2013-09-19 14:34:00,72.0,50.1,30.10,North,5,0.0,8.0,46,0.00,,,0.00,Wunderground v.1.15,2013-09-19 18:34:00,
2013-09-19 14:40:00,71.9,50.6,30.10,West,271,0.0,8.0,47,0.00,,,0.00,Wunderground v.1.15,2013-09-19 18:40:00,
2013-09-19 14:50:00,71.8,51.0,30.10,West,265,0.0,8.0,48,0.00,,,0.00,Wunderground v.1.15,2013-09-19 18:50:00,
2013-09-19 14:55:00,71.7,52.6,30.09,West,265,0.0,8.0,51,0.00,,,0.00,Wunderground v.1.15,2013-09-19 18:55:00,
2013-09-19 15:00:00,71.7,52.6,30.09,West,265,0.0,8.0,51,0.00,,,0.00,Wunderground v.1.15,2013-09-19 19:00:00,
2013-09-19 15:05:00,72.0,53.9,30.09,SW,227,1.0,8.0,53,0.00,,,0.00,Wunderground v.1.15,2013-09-19 19:05:00,
2013-09-19 15:10:00,72.0,51.8,30.09,SW,236,1.0,1.0,49,0.00,,,0.00,Wunderground v.1.15,2013-09-19 19:10:00,
2013-09-19 15:20:00,71.6,51.4,30.09,SW,219,1.0,1.0,49,0.00,,,0.00,Wunderground v.1.15,2013-09-19 19:20:00,
2013-09-19 15:25:00,72.0,53.4,30.08,SW,218,1.0,8.0,52,0.00,,,0.00,Wunderground v.1.15,2013-09-19 19:25:00,
2013-09-19 15:34:00,72.1,54.0,30.08,SW,219,1.0,8.0,53,0.00,,,0.00,Wunderground v.1.15,2013-09-19 19:34:00,
2013-09-19 15:39:00,72.2,54.6,30.08,SSW,213,2.0,8.0,54,0.00,,,0.00,Wunderground v.1.15,2013-09-19 19:39:00,
2013-09-19 15:45:00,72.1,56.0,30.08,SW,223,3.0,8.0,57,0.00,,,0.00,Wunderground v.1.15,2013-09-19 19:45:00,
2013-09-19 15:50:00,71.8,56.2,30.08,South,184,2.0,2.0,58,0.00,,,0.00,Wunderground v.1.15,2013-09-19 19:50:00,
2013-09-19 15:55:00,71.9,55.8,30.08,SW,215,2.0,8.0,57,0.00,,,0.00,Wunderground v.1.15,2013-09-19 19:55:00,
2013-09-19 16:00:00,71.7,55.2,30.08,SW,222,2.0,8.0,56,0.00,,,0.00,Wunderground v.1.15,2013-09-19 20:00:00,
2013-09-19 16:05:00,71.3,55.3,30.07,SW,219,2.0,8.0,57,0.00,,,0.00,Wunderground v.1.15,2013-09-19 20:05:00,
2013-09-19 16:10:00,71.3,56.2,30.07,WSW,257,2.0,2.0,59,0.00,,,0.00,Wunderground v.1.15,2013-09-19 20:10:00,
2013-09-19 16:15:00,71.1,56.5,30.07,SW,219,1.0,8.0,60,0.00,,,0.00,Wunderground v.1.15,2013-09-19 20:15:00,
2013-09-19 16:25:00,70.8,57.1,30.07,SSW,213,3.0,8.0,62,0.00,,,0.00,Wunderground v.1.15,2013-09-19 20:25:00,
2013-09-19 16:30:00,70.4,56.3,30.07,SW,219,3.0,8.0,61,0.00,,,0.00,Wunderground v.1.15,2013-09-19 20:30:00,
2013-09-19 16:40:00,70.1,56.5,30.08,SW,220,1.0,1.0,62,0.00,,,0.00,Wunderground v.1.15,2013-09-19 20:40:00,
2013-09-19 16:45:00,70.0,56.4,30.08,SSW,207,1.0,8.0,62,0.00,,,0.00,Wunderground v.1.15,2013-09-19 20:45:00,
2013-09-19 16:50:00,69.8,57.5,30.08,SSW,207,1.0,1.0,65,0.00,,,0.00,Wunderground v.1.15,2013-09-19 20:50:00,
2013-09-19 16:55:00,69.6,56.9,30.08,SW,235,1.0,2.0,64,0.00,,,0.00,Wunderground v.1.15,2013-09-19 20:55:00,
2013-09-19 17:00:00,69.5,56.3,30.08,SW,229,1.0,1.0,63,0.00,,,0.00,Wunderground v.1.15,2013-09-19 21:00:00,
2013-09-19 17:05:00,69.3,55.7,30.08,SW,216,2.0,2.0,62,0.00,,,0.00,Wunderground v.1.15,2013-09-19 21:05:00,
2013-09-19 17:10:00,69.1,56.4,30.08,SW,219,2.0,2.0,64,0.00,,,0.00,Wunderground v.1.15,2013-09-19 21:10:00,
2013-09-19 17:20:00,68.8,60.6,30.08,SW,215,1.0,1.0,75,0.00,,,0.00,Wunderground v.1.15,2013-09-19 21:20:00,
2013-09-19 17:25:00,68.3,57.7,30.08,SW,219,0.0,8.0,69,0.00,,,0.00,Wunderground v.1.15,2013-09-19 21:25:00,
2013-09-19 17:30:00,67.9,57.8,30.08,SW,219,0.0,8.0,70,0.00,,,0.00,Wunderground v.1.15,2013-09-19 21:30:00,
2013-09-19 17:35:00,67.2,57.5,30.07,SW,219,0.0,8.0,71,0.00,,,0.00,Wunderground v.1.15,2013-09-19 21:35:00,
2013-09-19 17:40:00,66.5,56.4,30.07,SW,219,0.0,8.0,70,0.00,,,0.00,Wunderground v.1.15,2013-09-19 21:40:00,
2013-09-19 17:45:00,65.9,55.8,30.07,SW,219,0.0,8.0,70,0.00,,,0.00,Wunderground v.1.15,2013-09-19 21:45:00,
2013-09-19 17:50:00,65.4,56.5,30.07,SW,219,0.0,8.0,73,0.00,,,0.00,Wunderground v.1.15,2013-09-19 21:50:00,
2013-09-19 17:59:00,64.2,55.7,30.07,SW,219,0.0,8.0,74,0.00,,,0.00,Wunderground v.1.15,2013-09-19 21:59:00,
2013-09-19 18:04:00,63.8,56.4,30.08,SW,219,0.0,8.0,77,0.00,,,0.00,Wunderground v.1.15,2013-09-19 22:04:00,
2013-09-19 18:10:00,63.4,55.7,30.08,SW,219,0.0,8.0,76,0.00,,,0.00,Wunderground v.1.15,2013-09-19 22:10:00,
2013-09-19 18:15:00,63.1,55.4,30.08,SW,219,0.0,8.0,76,0.00,,,0.00,Wunderground v.1.15,2013-09-19 22:15:00,
2013-09-19 18:20:00,62.8,55.8,30.08,SW,219,0.0,8.0,78,0.00,,,0.00,Wunderground v.1.15,2013-09-19 22:20:00,
2013-09-19 18:25:00,62.5,55.2,30.08,SW,219,0.0,8.0,77,0.00,,,0.00,Wunderground v.1.15,2013-09-19 22:25:00,
2013-09-19 18:30:00,62.2,55.3,30.08,SW,220,0.0,8.0,78,0.00,,,0.00,Wunderground v.1.15,2013-09-19 22:30:00,
2013-09-19 18:39:00,61.5,54.6,30.08,SW,220,0.0,8.0,78,0.00,,,0.00,Wunderground v.1.15,2013-09-19 22:39:00,
2013-09-19 18:45:00,61.1,54.5,30.08,SW,220,0.0,8.0,79,0.00,,,0.00,Wunderground v.1.15,2013-09-19 22:45:00,
2013-09-19 18:50:00,60.8,54.6,30.08,SW,220,0.0,8.0,80,0.00,,,0.00,Wunderground v.1.15,2013-09-19 22:50:00,
2013-09-19 18:55:00,60.4,54.2,30.08,SW,220,0.0,8.0,80,0.00,,,0.00,Wunderground v.1.15,2013-09-19 22:55:00,
2013-09-19 19:00:00,60.0,53.8,30.08,SW,220,0.0,8.0,80,0.00,,,0.00,Wunderground v.1.15,2013-09-19 23:00:00,
2013-09-19 19:05:00,59.6,54.1,30.08,SW,220,0.0,8.0,82,0.00,,,0.00,Wunderground v.1.15,2013-09-19 23:05:00,
2013-09-19 19:10:00,59.3,54.8,30.08,SW,220,0.0,8.0,85,0.00,,,0.00,Wunderground v.1.15,2013-09-19 23:10:00,
2013-09-19 19:20:00,58.5,53.7,30.08,SW,220,0.0,8.0,84,0.00,,,0.00,Wunderground v.1.15,2013-09-19 23:20:00,
2013-09-19 19:25:00,58.2,53.7,30.08,SW,220,0.0,8.0,85,0.00,,,0.00,Wunderground v.1.15,2013-09-19 23:25:00,
2013-09-19 19:35:00,57.7,52.9,30.08,SW,220,0.0,8.0,84,0.00,,,0.00,Wunderground v.1.15,2013-09-19 23:35:00,
2013-09-19 19:40:00,57.4,52.3,30.08,SW,220,0.0,8.0,83,0.00,,,0.00,Wunderground v.1.15,2013-09-19 23:40:00,
2013-09-19 19:45:00,57.2,51.4,30.09,SW,220,0.0,8.0,81,0.00,,,0.00,Wunderground v.1.15,2013-09-19 23:45:00,
2013-09-19 19:55:00,56.8,50.4,30.09,SW,220,0.0,8.0,79,0.00,,,0.00,Wunderground v.1.15,2013-09-19 23:55:00,
2013-09-19 20:00:00,56.7,50.9,30.09,SW,220,0.0,8.0,81,0.00,,,0.00,Wunderground v.1.15,2013-09-20 00:00:00,
2013-09-19 20:05:00,56.6,50.5,30.09,SW,220,0.0,8.0,80,0.00,,,0.00,Wunderground v.1.15,2013-09-20 00:05:00,
2013-09-19 20:15:00,56.4,50.3,30.09,SW,220,0.0,8.0,80,0.00,,,0.00,Wunderground v.1.15,2013-09-20 00:15:00,
2013-09-19 20:20:00,56.3,50.5,30.09,SW,220,0.0,8.0,81,0.00,,,0.00,Wunderground v.1.15,2013-09-20 00:20:00,
2013-09-19 20:25:00,56.2,50.4,30.09,SW,220,0.0,8.0,81,0.00,,,0.00,Wunderground v.1.15,2013-09-20 00:25:00,
2013-09-19 20:30:00,56.2,50.8,30.09,SW,220,0.0,8.0,82,0.00,,,0.00,Wunderground v.1.15,2013-09-20 00:30:00,
2013-09-19 20:35:00,56.1,51.0,30.09,SW,220,0.0,8.0,83,0.00,,,0.00,Wunderground v.1.15,2013-09-20 00:35:00,
2013-09-19 20:40:00,56.0,50.9,30.09,SW,220,0.0,8.0,83,0.00,,,0.00,Wunderground v.1.15,2013-09-20 00:40:00,
2013-09-19 20:45:00,56.0,50.9,30.09,SW,220,0.0,8.0,83,0.00,,,0.00,Wunderground v.1.15,2013-09-20 00:45:00,
2013-09-19 20:55:00,55.9,50.5,30.10,SW,220,0.0,8.0,82,0.00,,,0.00,Wunderground v.1.15,2013-09-20 00:55:00,
2013-09-19 21:00:00,56.0,50.9,30.10,SW,220,0.0,8.0,83,0.00,,,0.00,Wunderground v.1.15,2013-09-20 01:00:00,
2013-09-19 21:05:00,55.9,50.5,30.10,SW,220,0.0,8.0,82,0.00,,,0.00,Wunderground v.1.15,2013-09-20 01:05:00,
2013-09-19 21:10:00,55.9,50.5,30.10,SW,220,0.0,8.0,82,0.00,,,0.00,Wunderground v.1.15,2013-09-20 01:10:00,
2013-09-19 21:15:00,55.8,50.7,30.10,SW,220,0.0,8.0,83,0.00,,,0.00,Wunderground v.1.15,2013-09-20 01:15:00,
2013-09-19 21:20:00,55.8,50.7,30.10,SW,220,0.0,8.0,83,0.00,,,0.00,Wunderground v.1.15,2013-09-20 01:20:00,
2013-09-19 21:25:00,55.7,50.6,30.10,SW,220,0.0,8.0,83,0.00,,,0.00,Wunderground v.1.15,2013-09-20 01:25:00,
2013-09-19 21:34:00,55.6,50.5,30.10,SW,220,0.0,8.0,83,0.00,,,0.00,Wunderground v.1.15,2013-09-20 01:34:00,
2013-09-19 21:40:00,55.5,50.4,30.10,SW,220,0.0,8.0,83,0.00,,,0.00,Wunderground v.1.15,2013-09-20 01:40:00,
2013-09-19 21:45:00,55.5,51.1,30.10,SW,220,0.0,8.0,85,0.00,,,0.00,Wunderground v.1.15,2013-09-20 01:45:00,
2013-09-19 21:50:00,55.4,51.3,30.09,SW,220,0.0,8.0,86,0.00,,,0.00,Wunderground v.1.15,2013-09-20 01:50:00,
2013-09-19 21:55:00,55.3,51.5,30.09,SW,220,0.0,8.0,87,0.00,,,0.00,Wunderground v.1.15,2013-09-20 01:55:00,
2013-09-19 22:04:00,55.1,51.3,30.09,SW,220,0.0,8.0,87,0.00,,,0.00,Wunderground v.1.15,2013-09-20 02:04:00,
2013-09-19 22:09:00,55.0,51.2,30.09,SW,220,0.0,8.0,87,0.00,,,0.00,Wunderground v.1.15,2013-09-20 02:09:00,
2013-09-19 22:15:00,54.8,51.0,30.09,SW,220,0.0,8.0,87,0.00,,,0.00,Wunderground v.1.15,2013-09-20 02:15:00,
2013-09-19 22:20:00,54.8,51.0,30.09,SW,220,0.0,8.0,87,0.00,,,0.00,Wunderground v.1.15,2013-09-20 02:20:00,
2013-09-19 22:25:00,54.7,51.2,30.09,SW,220,0.0,8.0,88,0.00,,,0.00,Wunderground v.1.15,2013-09-20 02:25:00,
2013-09-19 22:30:00,54.7,51.2,30.09,SW,220,0.0,8.0,88,0.00,,,0.00,Wunderground v.1.15,2013-09-20 02:30:00,
2013-09-19 22:35:00,54.6,51.4,30.09,SW,220,0.0,8.0,89,0.00,,,0.00,Wunderground v.1.15,2013-09-20 02:35:00,
2013-09-19 22:44:00,54.6,51.7,30.09,SW,220,0.0,8.0,90,0.00,,,0.00,Wunderground v.1.15,2013-09-20 02:44:00,
2013-09-19 22:50:00,54.6,51.7,30.09,SW,220,0.0,8.0,90,0.00,,,0.00,Wunderground v.1.15,2013-09-20 02:50:00,
2013-09-19 22:55:00,54.5,51.6,30.09,SW,220,0.0,8.0,90,0.00,,,0.00,Wunderground v.1.15,2013-09-20 02:55:00,
2013-09-19 23:00:00,54.4,51.8,30.09,SW,220,0.0,8.0,91,0.00,,,0.00,Wunderground v.1.15,2013-09-20 03:00:00,
2013-09-19 23:05:00,54.2,51.0,30.08,SW,220,0.0,8.0,89,0.00,,,0.00,Wunderground v.1.15,2013-09-20 03:05:00,
2013-09-19 23:10:00,54.2,51.3,30.08,SW,220,0.0,8.0,90,0.00,,,0.00,Wunderground v.1.15,2013-09-20 03:10:00,
2013-09-19 23:15:00,54.2,51.6,30.08,SW,220,0.0,8.0,91,0.00,,,0.00,Wunderground v.1.15,2013-09-20 03:15:00,
2013-09-19 23:20:00,54.1,51.2,30.08,SW,220,0.0,8.0,90,0.00,,,0.00,Wunderground v.1.15,2013-09-20 03:20:00,
2013-09-19 23:25:00,54.0,50.8,30.08,SW,220,0.0,8.0,89,0.00,,,0.00,Wunderground v.1.15,2013-09-20 03:25:00,
2013-09-19 23:35:00,54.0,50.8,30.08,SW,220,0.0,8.0,89,0.00,,,0.00,Wunderground v.1.15,2013-09-20 03:35:00,
2013-09-19 23:40:00,54.0,50.8,30.08,SW,220,0.0,8.0,89,0.00,,,0.00,Wunderground v.1.15,2013-09-20 03:40:00,
2013-09-19 23:45:00,54.0,50.8,30.08,SW,220,0.0,8.0,89,0.00,,,0.00,Wunderground v.1.15,2013-09-20 03:45:00,
2013-09-19 23:55:00,53.9,50.7,30.08,SW,220,0.0,8.0,89,0.00,,,0.00,Wunderground v.1.15,2013-09-20 03:55:00,